Location: Melbourne
(37.8170°S, 144.9670°E)
Time: 11:04:36
(UTC+11:00)

deb Explorer IX - All Passes

Search period start: 25 March 2017 00:00
Search period end: 03 April 2017 23:00
Orbit: 540 x 1128 km, 38.8° (Epoch: 22 March)

Date Brightness Start Highest point End Pass type
(mag) Time Alt. Az. Time Alt. Az. Time Alt. Az.
25 Mar - 00:02:00 10° WNW 00:06:19 90° NNE 00:11:18 10° E night (unlit)
25 Mar - 01:48:52 10° W 01:53:34 84° S 01:59:09 10° E night (unlit)
25 Mar - 03:35:45 10° W 03:40:46 52° NNW 03:46:43 10° NE visible
25 Mar - 05:23:53 10° WNW 05:27:43 18° NW 05:31:53 10° N visible
25 Mar - 21:56:37 10° NW 22:00:21 34° NNE 22:04:19 10° E visible
25 Mar - 23:42:52 10° W 23:47:07 89° SSW 23:51:56 10° E night (unlit)
26 Mar - 01:29:44 10° W 01:34:20 85° S 01:39:44 10° E night (unlit)
26 Mar - 03:16:37 10° W 03:21:29 49° NNW 03:27:11 10° NE night (unlit)
26 Mar - 05:04:56 10° WNW 05:08:22 16° NW 05:12:05 10° N visible
26 Mar - 21:37:22 10° NW 21:41:08 36° NNE 21:45:04 10° E visible
26 Mar - 23:23:44 10° W 23:27:55 87° S 23:32:37 10° E night (unlit)
27 Mar - 01:10:37 10° W 01:15:06 86° S 01:20:20 10° E night (unlit)
27 Mar - 02:57:30 10° W 03:02:12 46° NNW 03:07:41 10° NE night (unlit)
27 Mar - 04:46:03 10° WNW 04:49:02 15° NW 04:52:13 10° N visible
27 Mar - 21:18:08 10° NW 21:21:56 38° NNE 21:25:51 10° E visible
27 Mar - 23:04:35 10° W 23:08:44 85° S 23:13:18 10° E night (unlit)
28 Mar - 00:51:29 10° W 00:55:53 88° S 01:00:57 10° E night (unlit)
28 Mar - 02:38:23 10° W 02:42:55 43° NNW 02:48:11 10° NE night (unlit)
28 Mar - 04:27:17 10° WNW 04:29:42 13° NW 04:32:16 10° N night (unlit)
28 Mar - 20:58:52 10° NW 21:02:44 40° NNE 21:06:38 10° E visible
28 Mar - 22:45:26 10° W 22:49:33 84° S 22:54:00 10° E visible
29 Mar - 00:32:22 10° W 00:36:41 89° S 00:41:36 10° E night (unlit)
29 Mar - 02:19:18 10° W 02:23:39 40° NNW 02:28:41 10° NE night (unlit)
29 Mar - 04:08:42 10° NW 04:10:23 11° NW 04:12:09 10° NNW night (unlit)
29 Mar - 20:39:36 10° NW 20:43:32 42° NNE 20:47:27 10° E visible
29 Mar - 22:26:17 10° W 22:30:23 82° S 22:34:44 10° E visible
30 Mar - 00:13:14 10° W 00:17:28 89° NNW 00:22:15 10° ENE night (unlit)
30 Mar - 02:00:13 10° W 02:04:25 37° NNW 02:09:12 10° NE night (unlit)
30 Mar - 18:36:38 10° NNE 18:37:54 11° NE 18:39:07 10° NE daylight
30 Mar - 20:20:20 10° NW 20:24:21 45° NNE 20:28:16 10° E visible
30 Mar - 22:07:06 10° W 22:11:13 81° S 22:15:29 10° E visible
30 Mar - 23:54:06 10° W 23:58:18 87° N 00:02:55 10° ENE night (unlit)
31 Mar - 01:41:08 10° W 01:45:10 34° NNW 01:49:44 10° NE night (unlit)
31 Mar - 18:16:47 10° N 18:18:39 12° NE 18:20:28 10° ENE daylight
31 Mar - 20:01:02 10° NW 20:05:10 47° NNE 20:09:07 10° E visible
31 Mar - 21:47:55 10° W 21:52:03 80° S 21:56:15 10° E visible
31 Mar - 23:34:58 10° W 23:39:07 85° NNW 23:43:37 10° ENE night (unlit)
01 Apr - 01:22:04 10° W 01:25:56 31° NNW 01:30:16 10° NE night (unlit)
01 Apr - 17:57:03 10° N 17:59:25 14° NNE 18:01:40 10° ENE daylight
01 Apr - 19:41:44 10° NW 19:45:58 50° NNE 19:49:58 10° E visible
01 Apr - 21:28:44 10° W 21:32:54 79° S 21:37:03 10° E visible
01 Apr - 23:15:49 10° W 23:19:55 82° NNW 23:24:20 10° ENE night (unlit)
02 Apr - 01:02:59 10° W 01:06:43 29° NNW 01:10:48 10° NNE night (unlit)
02 Apr - 16:37:22 10° N 16:40:10 15° NNE 16:42:47 10° ENE daylight
02 Apr - 18:22:24 10° WNW 18:26:47 54° NNE 18:30:50 10° E daylight
02 Apr - 20:09:32 10° W 20:13:44 78° S 20:17:51 10° E visible
02 Apr - 21:56:39 10° W 22:00:46 80° NNW 22:05:04 10° ENE visible
02 Apr - 23:43:56 10° W 23:47:30 27° NNW 23:51:22 10° NNE night (unlit)
03 Apr - 16:17:44 10° N 16:20:55 17° NNE 16:23:52 10° ENE daylight
03 Apr - 18:03:05 10° WNW 18:07:36 57° NNE 18:11:42 10° E daylight
03 Apr - 19:50:18 10° W 19:54:34 77° S 19:58:41 10° E visible
03 Apr - 21:37:29 10° W 21:41:36 77° NNW 21:45:49 10° ENE visible
